This is the latest recevied weather packets stored in our database for station/object K8JCL-13. If no packets are shown the sender has not sent any weather packets the latest 10 day(s).
| Time | Temp. | Humidity | Pressure | Rain* | Wind** | Luminosity | Snow |
|---|---|---|---|---|---|---|---|
| 1777982818 | 13.33° C | 99% | 1008.5 hPa | 0 mm | - | 39 W/m² | - |
| 1777982514 | 13.33° C | 99% | 1008.4 hPa | 0 mm | - | 39 W/m² | - |
| 1777982207 | 13.33° C | 99% | 1008.3 hPa | 0 mm | - | 32 W/m² | - |
| 1777981906 | 12.78° C | 99% | 1008.3 hPa | 0 mm | - | 36 W/m² | - |
| 1777981602 | 13.33° C | 99% | 1008.2 hPa | 0 mm | - | 41 W/m² | - |
| 1777981299 | 12.78° C | 99% | 1008.2 hPa | 0 mm | - | 46 W/m² | - |
| 1777980995 | 12.78° C | 99% | 1008.1 hPa | 0 mm | - | 48 W/m² | - |
| 1777980692 | 12.78° C | 99% | 1007.9 hPa | 0 mm | - | 36 W/m² | - |
| 1777980388 | 12.78° C | 99% | 1007.5 hPa | 0 mm | - | 28 W/m² | - |
| 1777980086 | 12.78° C | 99% | 1007.5 hPa | 0 mm | - | 15 W/m² | - |
| 1777979780 | 12.78° C | 99% | 1007.4 hPa | 0 mm | - | 7 W/m² | - |
| 1777979476 | 12.78° C | 99% | 1007.2 hPa | 0 mm | - | 5 W/m² | - |
| 1777979172 | 12.78° C | 99% | 1007.3 hPa | 0 mm | - | 5 W/m² | - |
| 1777978870 | 12.78° C | 99% | 1007.4 hPa | 0 mm | - | 8 W/m² | - |
| 1777978566 | 12.78° C | 99% | 1007.5 hPa | 0 mm | - | 6 W/m² | - |
| 1777978262 | 12.78° C | 99% | 1007.1 hPa | 0 mm | - | 3 W/m² | - |
| 1777977959 | 12.78° C | 99% | 1007.6 hPa | 1.78 mm | - | 2 W/m² | - |
| 1777977657 | 12.78° C | 99% | 1008 hPa | 1.78 mm | - | 1 W/m² | - |
| 1777977353 | 12.78° C | 99% | 1007.9 hPa | 0 mm | - | 1 W/m² | - |
| 1777977050 | 13.33° C | 99% | 1008.1 hPa | 1.27 mm | - | 0 W/m² | - |
| 1777976748 | 13.33° C | 99% | 1008.2 hPa | 3.05 mm | - | 0 W/m² | - |
| 1777976445 | 13.33° C | 99% | 1008.4 hPa | 3.56 mm | - | 0 W/m² | - |
| 1777976143 | 13.33° C | 99% | 1008.6 hPa | 3.05 mm | - | 0 W/m² | - |
| 1777975839 | 13.33° C | 99% | 1008.7 hPa | 1.27 mm | - | 0 W/m² | - |
| 1777975536 | 13.33° C | 99% | 1008.9 hPa | 1.78 mm | - | 0 W/m² | - |
* Rain latest hour (hover to see other rain measurements)
** Current wind speed in m/s (hover to see current wind gust speed)